{"data":{"norad_id":59305,"intl_designator":"2024-056K","name":"STARLINK-31500","alt_names":[],"object_type":"PAYLOAD","status":"ACTIVE","operator":null,"country":"US","launch_date":"2024-03-24","launch_site_code":"AFETR","launch_vehicle":null,"mission":null,"orbit_class":"UNKNOWN","rcs_meters":null,"size_class":null,"mass_kg":null,"dimensions":null,"purposes":["comms"],"wikipedia_slug":null,"has_3d_model":false,"image_url":null,"decayed_at":null,"tle_current":{"epoch":"2026-09-21T12:31:59.410560Z","epoch_age_seconds":73987,"freshness":"FRESH","line1":"1 59305U 24056K   26264.52221540  .00000006  00000+0  97241-5 0  9993","line2":"2 59305  43.0037 204.8100 0001051 282.6840  77.3894 15.27576909141109","mean_motion":15.27576909,"eccentricity":0.0001051,"inclination_deg":43.0037,"raan_deg":204.81,"arg_perigee_deg":282.684,"mean_anomaly_deg":77.3894,"bstar":9.7241e-6,"rev_number":14110,"period_min":94.266939459216,"perigee_km":482.33723998979,"apogee_km":483.7794632527,"semimajor_km":6861.1953516212,"source":"CELESTRAK","updated_at":"2026-09-22T09:00:48.876680Z"}}}